Lapse_Rate
3.3 3.0 2.9 2.9 2.8 2.6 2.4 2.4 2.3 2.3 2.4 2.3 1.9 1.5 1.1 0.9 0.7 0.6 0.2 -0.1 0.2 1.1 1.3 1.5 1.9 2.2 2.7 4.9 3.3 3.4 3.6 4.0 3.2 4.1 4.7 5.1 5.5 5.3 6.5 6.3 6.0 6.5 6.5 5.3 4.0 3.4 4.3
3.1 3.0 3.0 2.8 2.6 2.4 2.4 2.0 2.0 1.9 2.0 2.0 1.8 1.4 0.8 0.4 0.5 0.4 0.3 0.1 0.4 1.0 1.2 1.5 2.0 2.5 4.6 6.3 4.5 2.9 1.7 2.3 3.3 4.2 4.7 4.7 5.0 4.2 5.5 6.2 6.4 6.0 6.0 5.5 4.5 4.4 5.0
3.5 3.2 2.7 2.5 2.2 2.1 2.1 2.0 1.7 1.5 1.6 1.6 1.4 1.2 0.8 0.4 0.3 0.3 0.3 0.8 0.9 1.1 1.2 1.8 2.5 3.2 4.9 3.4 3.8 2.3 2.6 3.3 3.2 4.1 4.8 5.0 5.6 5.8 6.0 6.5 5.7 5.8 6.5 6.5 6.1 5.8 6.2
3.6 3.0 2.6 2.3 2.0 1.9 1.8 1.5 1.3 1.4 1.4 1.2 1.1 0.9 0.8 0.5 0.3 0.3 0.3 0.5 0.6 1.1 1.5 2.1 2.9 4.0 3.9 4.7 2.7 2.9 3.8 4.6 4.1 5.1 6.3 5.9 5.3 6.3 6.3 5.8 5.2 6.5 6.5 6.5 6.5 6.5 6.1
3.6 2.9 2.6 2.4 2.4 2.3 2.0 1.6 1.4 1.2 1.2 0.9 0.6 0.5 0.4 0.3 0.1 0.1 0.2 0.6 0.9 1.3 2.3 2.7 4.1 4.9 4.3 4.1 4.5 4.1 4.7 4.8 4.5 5.9 6.1 5.9 6.2 5.4 6.0 6.5 6.5 6.5 6.5 6.5 6.5 6.5 6.5
4.1 3.4 3.1 2.8 2.8 2.4 2.2 1.8 1.4 1.2 1.0 0.8 0.5 0.1 0.1 0.2 0.1 0.0 0.9 1.5 1.7 2.1 3.1 4.1 5.6 5.7 4.2 5.3 5.2 4.6 5.2 5.0 5.8 5.6 5.9 5.9 2.9 6.5 6.5 6.5 6.5 6.5 6.5 6.5 6.5 6.5 6.5
4.5 3.8 3.6 3.3 3.1 2.6 2.2 1.8 1.6 1.3 1.0 0.7 0.3 -0.0 -0.1 0.1 0.1 0.2 0.5 1.8 3.9 4.3 4.6 3.5 4.2 4.8 5.3 5.5 5.8 5.5 5.2 6.0 5.6 5.1 6.5 6.0 6.5 6.5 6.5 6.5 6.5 6.5 6.5 6.5 6.5 6.5 6.5
4.6 4.2 3.9 3.5 3.0 2.7 2.2 1.8 1.4 1.2 1.0 0.7 0.4 0.1 -0.1 -0.0 0.1 0.6 0.6 3.9 4.4 4.4 5.1 4.0 4.2 4.5 5.0 5.9 5.9 5.8 5.8 6.0 6.1 6.5 6.5 6.5 6.5 6.5 6.5 6.5 6.5 6.5 6.5 6.5 6.5 6.5 6.5
4.7 4.4 3.8 3.3 3.0 2.6 2.1 1.8 1.5 1.1 0.8 0.4 0.2 -0.1 -0.2 0.1 0.1 1.7 2.9 3.5 2.5 3.8 5.6 5.1 5.1 4.9 5.7 5.8 5.8 5.0 5.4 5.1 6.5 6.5 6.5 6.5 6.5 6.5 6.5 6.5 6.5 6.5 6.5 6.5 6.5 6.5 6.5
5.0 4.3 3.7 3.4 3.1 2.8 2.4 2.3 2.0 1.7 1.0 0.6 0.1 -0.4 -0.4 -0.1 2.9 2.1 3.3 3.2 2.7 3.9 6.5 6.5 6.5 6.7 6.5 5.7 6.3 5.5 5.1 5.3 6.4 6.5 6.5 6.5 6.4 6.5 6.5 6.5 6.5 6.5 6.5 6.5 6.5 6.5 6.5
4.8 4.4 4.2 3.8 3.3 2.9 2.6 2.4 2.1 1.8 1.2 0.9 0.2 -0.3 -0.5 -0.2 0.4 3.1 3.5 2.3 2.5 3.5 6.5 6.5 6.5 6.6 5.9 5.8 5.8 6.1 5.8 6.5 6.5 6.5 6.5 6.5 6.5 6.5 6.5 6.5 6.5 6.5 6.5 6.5 6.5 6.5 6.5
5.1 4.6 4.3 3.9 3.6 3.2 2.8 2.3 2.1 1.8 1.4 1.0 0.4 0.3 0.1 0.6 0.7 2.9 2.3 2.7 3.0 6.5 6.5 6.5 6.3 6.5 6.5 6.4 6.3 5.9 5.9 6.2 6.2 6.5 6.5 6.5 6.0 6.5 6.5 6.5 6.5 6.5 6.5 6.5 6.5 6.5 6.5
6.8 6.5 4.7 4.3 3.8 3.4 3.0 2.6 2.3 2.0 1.6 1.3 2.3 2.7 1.8 2.9 4.0 3.0 2.0 3.0 6.5 6.5 6.5 6.5 6.5 6.5 6.5 6.5 6.5 6.5 6.5 6.5 6.5 6.5 6.5 6.5 6.5 6.5 6.4 6.5 6.5 6.5 6.5 6.5 6.5 6.5 6.5
7.7 8.2 6.5 5.2 4.2 3.8 3.4 2.9 2.6 2.2 1.5 2.0 2.9 3.0 4.1 4.8 3.3 2.7 2.7 6.1 6.5 6.5 6.5 6.5 6.5 6.5 6.5 6.5 6.5 6.5 6.5 6.5 6.5 6.5 6.5 6.5 6.5 6.5 6.5 6.5 6.5 6.5 6.5 6.5 6.5 6.5 6.5
8.1 8.1 7.6 5.8 4.6 4.0 3.4 2.8 2.4 2.1 1.4 2.4 2.6 2.0 3.3 3.4 2.9 2.2 4.0 6.5 6.5 6.5 6.5 6.5 6.5 6.5 6.5 6.5 6.5 6.5 6.5 6.5 6.5 6.5 6.5 6.5 6.5 6.5 6.5 6.5 6.5 6.5 6.5 6.5 6.5 6.5 6.5
8.4 8.3 6.8 5.2 4.7 4.1 3.4 2.4 1.9 1.9 1.8 2.3 1.6 2.3 3.3 2.5 2.0 2.7 5.8 6.5 6.5 6.5 6.5 6.5 6.5 6.5 6.5 6.5 6.5 6.5 6.5 6.5 6.5 6.5 6.4 6.5 6.5 6.5 6.5 6.4 6.5 6.5 6.5 6.5 6.5 6.5 6.5
7.9 8.1 8.0 5.6 4.7 3.8 3.1 2.3 1.6 1.5 1.9 2.1 2.7 3.2 3.4 1.4 1.9 3.0 6.5 6.5 6.5 6.6 6.2 6.5 6.5 6.5 6.5 6.5 6.5 6.5 6.5 6.5 6.5 6.5 6.1 6.5 6.5 6.5 6.5 6.5 6.5 6.5 6.5 6.5 6.5 6.5 6.5
8.4 8.2 8.0 6.3 4.7 3.8 3.2 2.2 1.5 0.9 1.3 0.7 1.9 6.4 2.9 0.7 5.5 5.6 6.5 6.5 6.3 6.4 5.4 6.5 6.5 6.5 6.5 6.5 6.5 6.5 6.5 6.5 6.5 6.5 6.5 6.5 6.5 6.5 6.5 6.5 6.5 6.5 6.5 6.5 6.5 6.5 6.5
8.6 8.2 7.4 6.4 5.1 3.9 2.8 1.9 1.1 0.8 0.7 -0.5 2.0 2.5 1.6 0.6 6.5 6.5 6.4 6.5 6.4 6.5 6.5 6.5 6.5 6.5 6.5 6.5 6.5 6.5 6.5 6.8 6.3 6.4 6.5 6.5 6.5 6.5 6.5 6.5 6.5 6.5 6.5 6.5 6.5 6.5 6.5
8.9 8.0 8.3 7.8 4.6 3.5 2.8 2.0 1.2 0.5 0.5 -0.7 1.2 6.5 3.1 2.9 4.4 6.4 6.5 6.5 6.5 6.1 6.4 6.2 6.5 6.2 6.5 6.5 6.5 6.5 6.5 6.5 5.5 6.3 7.1 6.4 6.5 6.5 6.5 6.5 6.5 6.5 6.5 6.5 6.5 6.5 6.5
8.0 8.1 8.3 7.2 5.3 4.6 3.6 2.9 2.0 0.6 -0.1 -0.8 0.8 6.2 5.7 6.5 6.4 6.5 6.5 6.5 6.5 6.5 6.2 5.9 6.5 6.5 6.5 6.5 6.5 6.5 6.5 6.5 6.1 6.5 6.3 6.5 6.5 6.5 6.5 6.5 6.5 6.5 6.5 6.5 6.5 6.5 6.5
9.2 8.0 8.5 8.3 7.3 5.4 4.7 3.8 2.8 1.2 0.1 -2.5 2.8 5.0 3.3 5.0 5.7 6.4 6.5 6.5 6.5 6.5 6.5 6.5 6.5 6.5 6.5 6.5 6.5 6.5 6.5 6.5 6.5 6.4 6.5 6.5 6.5 6.5 6.5 6.5 6.5 6.5 6.5 6.5 6.5 6.5 6.5
9.2 9.3 8.6 8.9 7.7 6.9 5.2 5.2 4.5 3.0 0.0 -0.5 0.9 2.4 2.9 6.0 6.3 6.5 6.5 6.5 6.5 6.5 6.6 6.4 6.5 6.5 6.5 6.5 6.5 5.8 5.7 5.9 6.2 6.5 6.5 6.5 6.5 6.5 6.5 6.5 6.5 6.5 6.5 6.5 6.5 6.5 6.5
9.3 9.2 8.7 8.7 8.1 7.7 7.1 5.8 5.8 5.8 3.4 0.4 0.7 1.3 3.7 6.5 6.5 6.5 6.5 6.5 6.5 6.5 6.5 6.3 6.3 6.5 6.6 5.5 4.6 5.1 5.4 6.2 6.1 6.2 6.1 6.5 6.5 6.5 6.5 6.5 6.5 6.5 6.5 6.5 6.5 6.5 6.5
8.5 9.2 8.8 8.9 7.9 8.6 7.9 7.4 6.5 7.1 5.8 1.6 0.9 1.8 3.6 6.5 6.3 6.4 6.4 6.5 6.1 5.7 6.4 6.5 6.5 6.8 5.1 5.5 6.5 6.5 6.5 6.5 6.5 6.5 6.5 6.4 6.5 6.5 6.5 6.5 6.5 6.5 6.5 6.5 6.5 6.5 6.5
9.0 8.4 8.7 9.1 9.2 9.1 9.3 8.7 7.5 7.4 7.3 3.0 2.1 1.6 2.6 5.0 6.4 6.3 6.2 6.4 6.5 6.5 6.5 6.2 5.7 4.9 5.3 6.5 6.5 6.5 6.5 6.5 6.5 6.5 6.5 6.5 6.5 6.5 6.5 6.5 6.5 6.5 6.5 6.1 4.1 6.5 4.6
8.5 8.5 8.3 8.3 8.1 8.6 9.2 9.1 9.0 7.3 7.2 5.1 4.6 3.6 3.2 4.9 5.5 5.9 5.9 6.3 5.7 6.1 6.5 6.1 5.7 5.5 5.8 6.5 6.5 6.5 6.5 6.5 6.5 6.5 6.5 6.5 6.5 6.5 6.5 6.5 6.5 6.5 3.6 4.4 6.5 6.5 4.2
8.7 9.5 9.4 8.3 8.1 8.2 9.1 9.3 9.3 8.4 7.6 6.4 5.2 5.0 3.8 3.3 5.2 6.1 6.6 5.9 5.5 5.2 6.5 5.4 6.1 6.0 6.3 6.5 6.5 6.5 6.5 6.5 6.5 6.5 6.5 6.5 6.5 6.5 6.5 6.5 6.5 3.2 5.9 6.5 5.0 1.3 0.8
8.4 9.1 9.1 9.4 9.0 9.1 9.4 9.3 9.3 8.5 8.2 8.2 5.4 6.0 5.7 4.3 5.7 5.0 5.6 5.6 6.7 6.7 6.2 5.4 6.0 6.1 6.3 6.5 6.5 6.5 6.5 6.5 6.5 6.5 6.5 6.5 6.5 6.5 6.5 6.5 5.7 3.1 3.1 0.1 -0.0 2.3 1.5
Wind_Speed
18 18 18 18 18 18 19 19 19 20 20 20 20 19 18 16 13 11 9 9 9 8 7 5 4 2 1 2 8 0 13 13 7 5 7 6 5 5 3 4 3 4 5 5 8 9 7
17 17 17 18 18 19 20 21 21 21 21 21 21 21 20 18 15 11 8 8 7 7 5 4 3 3 2 3 0 9 9 7 5 5 5 5 6 7 3 4 5 2 4 7 7 9 5
17 18 18 19 19 20 21 21 22 22 23 23 23 22 22 21 18 13 9 8 7 5 4 4 3 2 1 10 2 7 8 5 6 5 4 3 3 3 1 4 3 3 6 7 7 4 7
19 19 19 19 20 20 21 22 23 23 23 24 24 24 23 22 20 17 12 8 5 3 3 4 4 1 6 2 6 6 2 3 3 3 3 3 5 2 2 2 7 4 2 4 3 5 2
18 19 19 20 20 21 22 22 23 24 24 25 25 25 25 23 21 19 13 5 2 5 4 5 2 2 7 4 4 4 3 6 5 3 3 3 4 2 3 3 5 3 4 5 9 4 3
18 18 19 20 21 22 22 23 23 24 24 25 25 25 25 23 21 19 10 4 10 8 3 1 1 2 4 4 3 6 2 6 4 4 4 4 4 2 2 4 6 6 5 5 6 1 2
18 19 20 21 22 22 23 23 23 24 24 25 25 26 26 25 21 16 3 4 3 3 2 7 5 3 2 1 3 3 4 4 3 5 4 0 3 10 15 10 3 2 3 5 4 3 3
18 20 21 22 23 23 24 24 25 25 25 25 25 26 26 26 23 16 3 3 2 1 6 4 4 5 4 1 3 2 5 5 3 5 4 3 8 11 4 7 7 6 6 9 8 5 6
19 21 22 23 23 24 25 25 25 26 26 26 26 26 26 25 26 2 3 2 1 3 1 4 4 4 3 5 3 8 8 4 3 5 6 6 6 3 7 4 6 8 8 5 9 5 4
20 21 22 23 24 24 25 26 27 27 27 27 27 25 23 24 1 1 2 2 1 2 4 2 1 1 1 3 1 2 5 5 2 8 5 6 6 7 3 5 8 6 10 12 7 0 4
20 21 23 24 25 26 26 27 27 28 28 27 27 25 18 7 2 3 1 2 3 3 3 1 1 2 2 4 4 4 1 2 4 4 5 6 2 3 4 8 8 8 6 7 4 4 1
20 21 22 24 25 26 27 28 28 29 28 29 29 22 8 3 1 1 3 2 3 5 4 2 1 1 3 1 2 2 2 3 1 2 3 7 3 3 7 4 6 1 3 4 4 3 3
20 21 22 24 26 27 28 30 30 29 29 29 28 18 2 1 1 3 1 3 4 4 5 5 3 4 3 5 3 1 3 5 3 4 4 5 4 3 2 2 2 3 5 3 3 1 7
20 21 23 25 27 28 29 31 31 30 29 28 21 10 2 1 7 1 2 4 3 3 3 3 3 3 5 7 4 4 3 3 9 5 2 2 6 0 3 4 3 5 7 5 4 4 4
22 23 25 27 27 29 31 33 34 32 28 22 9 3 2 6 5 2 4 4 2 3 4 6 4 5 3 5 4 5 5 3 6 7 2 5 5 5 3 2 5 1 4 4 5 4 1
22 23 25 27 29 30 33 35 36 32 26 14 2 2 3 15 5 3 4 5 3 5 5 3 2 4 3 6 4 6 2 3 2 7 2 3 7 5 6 3 1 4 2 3 1 4 8
22 26 26 28 30 32 34 37 38 33 28 8 3 3 3 18 2 5 4 3 4 5 6 6 3 4 4 4 4 3 3 5 5 5 7 4 3 3 7 3 4 6 4 5 3 5 9
26 26 29 30 32 34 36 38 39 34 28 6 2 3 5 6 4 3 3 3 6 7 9 7 5 6 5 6 4 3 3 4 9 2 3 2 2 5 6 5 12 7 6 5 2 5 4
26 27 27 32 33 35 38 40 41 34 23 2 3 1 4 3 4 2 3 5 5 7 6 6 7 6 5 3 3 5 5 6 9 5 2 4 3 5 6 3 8 6 6 4 4 5 3
25 26 28 28 33 36 39 41 43 38 23 3 3 3 4 5 2 5 4 3 3 6 4 5 4 6 6 5 5 2 3 2 8 3 12 5 3 6 5 2 0 3 5 4 1 2 5
24 26 28 31 33 35 38 39 43 41 22 3 4 2 0 3 5 6 4 3 3 5 4 6 4 5 2 2 3 2 2 6 7 9 4 3 3 2 3 8 3 3 3 5 3 2 5
24 27 27 29 31 33 35 37 41 46 15 5 3 3 3 3 3 5 6 3 2 3 2 3 4 2 2 3 4 5 2 1 5 4 3 5 3 4 5 2 4 6 6 6 6 2 3
24 25 26 28 29 32 34 35 37 41 19 4 3 2 3 5 3 3 2 1 2 0 2 4 1 1 2 3 3 7 8 8 7 3 2 3 2 2 4 4 6 1 3 4 3 3 3
23 24 24 26 28 29 30 31 33 31 21 3 2 1 3 2 3 3 2 2 3 2 1 4 3 1 2 6 7 3 3 4 4 8 8 3 1 2 3 1 2 1 3 3 5 3 4
23 23 23 25 25 27 28 27 26 29 20 4 2 3 3 3 3 4 4 3 3 4 4 2 2 2 4 3 3 4 1 3 2 5 5 7 2 1 2 1 3 3 2 2 3 3 1
22 22 23 23 23 23 25 23 24 21 22 3 2 2 3 4 0 3 3 2 2 2 5 2 4 4 4 1 1 1 2 2 2 2 5 5 5 2 3 2 4 3 1 2 3 3 3
22 23 23 22 23 22 21 21 21 22 21 5 2 4 4 3 1 2 2 2 2 2 0 2 5 5 3 2 0 0 0 2 1 2 5 4 4 3 2 1 4 4 4 1 3 2 3
20 22 21 22 22 23 21 21 20 19 19 7 2 5 3 2 1 1 2 2 2 2 2 3 2 2 2 2 1 1 2 1 4 2 1 2 2 1 2 3 4 2 2 3 3 3 3
20 22 22 21 20 19 21 20 19 18 17 9 1 3 2 3 2 1 2 3 2 2 2 1 1 1 1 1 0 2 2 3 3 1 4 2 0 1 3 2 1 2 3 2 4 3 4
Wind_Direction
24 19 16 13 12 9 8 6 5 360 358 356 357 356 353 348 338 320 298 285 279 268 258 243 230 222 154 248 255 92 122 118 97 115 155 144 133 153 191 214 172 222 258 234 243 268 250
20 16 13 11 9 7 7 4 0 357 355 354 355 354 353 349 345 330 309 289 279 271 256 238 230 177 199 253 252 149 119 113 128 128 156 127 186 196 216 233 180 237 248 268 270 251 240
18 14 11 10 8 5 4 1 357 355 353 353 352 351 351 349 348 343 323 297 282 259 234 221 212 222 211 239 42 139 122 147 156 149 146 195 163 153 138 287 296 280 306 312 243 230 231
15 12 10 8 7 3 0 358 356 353 351 350 350 349 348 348 347 346 333 309 277 240 190 180 176 187 247 312 137 125 150 114 132 148 115 133 156 155 184 295 354 342 26 337 282 143 333
11 9 8 6 3 1 358 356 353 350 348 348 347 347 345 345 346 344 335 320 185 142 116 147 127 127 266 127 128 176 146 147 128 108 73 99 94 153 51 85 349 345 258 228 314 195 127
8 6 5 3 0 358 355 353 350 347 345 344 343 343 342 341 343 345 358 109 117 106 95 170 287 21 275 231 160 143 122 129 115 100 58 71 57 89 55 117 235 211 226 245 247 256 162
7 3 1 359 357 354 352 349 347 344 342 341 339 338 337 335 337 338 323 90 44 8 260 188 193 237 83 43 105 68 135 94 89 67 154 63 131 214 208 202 212 160 213 254 254 253 277
5 2 359 357 354 352 350 347 344 342 340 338 336 334 332 331 330 331 146 122 128 172 299 236 234 290 285 224 86 93 125 137 140 181 133 53 236 238 187 209 230 261 282 276 289 248 182
3 359 357 356 354 351 349 346 343 340 338 335 333 331 328 326 323 120 111 116 126 123 159 307 184 173 214 149 196 195 137 136 145 168 196 182 229 81 179 186 205 233 230 236 240 315 256
2 1 357 356 354 352 349 345 342 339 336 334 330 327 324 325 56 302 82 353 82 114 58 290 95 31 109 124 113 18 176 138 191 209 200 236 262 256 167 229 186 262 207 236 247 137 256
3 359 357 356 354 350 348 345 341 337 335 332 328 323 318 314 293 114 121 349 123 63 9 9 12 296 40 125 143 3 287 69 214 198 129 249 277 186 187 222 158 238 178 207 214 194 320
2 0 359 358 356 353 351 346 341 337 335 332 327 327 311 112 164 54 352 60 52 51 257 10 28 61 105 44 53 55 65 48 42 272 212 242 295 266 213 209 177 163 124 51 56 101 255
4 2 1 358 357 354 352 348 343 339 336 333 328 336 124 188 151 327 49 63 52 148 350 351 350 14 97 353 58 107 128 36 25 358 350 324 247 283 174 245 234 123 76 307 307 114 233
5 2 0 357 357 355 353 349 345 340 337 330 324 327 268 85 315 38 73 62 190 64 349 341 1 332 86 358 50 7 79 103 30 6 292 343 328 313 332 190 220 188 172 183 247 228 269
5 3 1 1 357 356 354 351 348 343 337 332 326 342 9 338 336 93 81 65 56 11 301 335 331 58 43 357 29 31 57 65 35 8 38 356 271 319 301 266 152 141 171 223 257 242 291
7 6 4 2 359 358 356 354 350 346 342 346 83 32 341 343 359 75 76 101 89 9 331 321 37 23 55 353 46 22 61 1 43 10 276 41 291 272 314 346 48 177 236 276 346 275 255
6 12 9 7 3 1 359 357 354 353 349 345 56 54 275 344 76 53 90 75 101 38 23 25 59 38 53 18 354 322 49 50 26 358 41 14 223 292 11 312 18 347 353 355 290 239 262
16 11 9 10 7 4 1 1 360 358 353 38 85 55 322 341 52 31 58 32 9 1 12 27 67 57 41 12 357 343 41 64 355 5 32 305 262 280 226 325 73 58 44 28 328 307 284
16 12 10 9 10 6 2 1 2 2 9 20 72 360 334 37 99 70 46 70 59 20 24 22 33 47 12 30 10 12 24 117 32 43 32 331 315 327 331 70 45 39 49 24 285 250 255
16 14 15 11 11 10 5 3 2 4 6 80 71 52 356 37 32 103 107 48 78 25 60 69 72 59 36 16 15 313 331 28 351 338 318 248 228 186 211 170 213 329 35 357 298 241 316
17 15 17 16 15 13 9 7 4 6 6 81 28 76 240 23 25 70 81 62 47 18 23 35 81 81 81 345 318 299 30 353 327 318 15 71 210 294 300 316 332 97 24 34 97 218 172
13 16 17 19 18 16 14 12 10 7 12 79 85 95 30 55 32 56 31 48 71 337 15 62 71 355 168 202 210 273 332 156 243 331 53 1 294 341 295 285 135 104 29 111 63 11 115
20 14 15 19 19 19 19 14 18 16 23 69 344 40 92 354 43 64 35 109 64 317 38 100 120 321 268 268 235 254 233 231 233 239 1 279 196 75 273 126 134 325 7 46 129 70 312
18 16 17 19 18 18 20 20 19 24 34 77 8 69 73 54 67 79 105 101 63 43 274 333 42 80 262 336 298 257 221 238 237 257 194 233 152 211 245 269 247 120 26 54 98 75 25
18 15 17 17 14 16 15 19 18 21 26 60 354 66 69 93 91 94 81 70 57 6 21 306 267 231 333 314 354 7 260 169 76 37 70 204 213 285 127 161 319 338 323 49 98 273 312
14 12 12 12 14 11 11 14 14 14 17 45 20 77 81 116 286 93 103 65 90 358 355 286 320 326 19 14 324 130 230 6 147 152 71 83 36 129 82 152 238 235 269 10 121 292 268
14 12 9 6 7 7 10 5 10 6 6 32 356 24 71 97 337 62 122 144 118 95 226 307 337 356 9 6 323 181 66 323 83 46 341 357 7 73 15 139 296 250 282 4 90 267 297
5 6 6 5 1 1 4 360 2 4 356 17 334 17 99 91 337 35 55 120 77 87 117 296 25 359 355 41 84 304 100 94 86 109 62 89 62 360 61 52 309 232 351 176 185 289 240
1 0 358 5 2 357 357 354 351 356 345 350 17 11 52 89 158 25 354 352 35 147 138 316 201 253 267 357 357 93 39 38 147 79 31 14 159 268 181 236 229 265 221 242 132 166 292